Regional Weather Roundup
Issued by NWS

Home | Current Version | Previous Version | Graphics & Text | Print | Product List | Glossary On
Versions: 1 2 3 4 5 6 7 8 9 10 11 12 13 14 15 16 17 18 19 20 21 22 23 24 25 26 27 28 29 30 31 32 33 34 35 36 37 38 39 40 41 42 43 44 45 46 47 48 49 50
000
ASUS43 KLOT 021406
RWRIL

ILLINOIS REGIONAL WEATHER ROUNDUP
NATIONAL WEATHER SERVICE CHICAGO/ROMEOVILLE IL
800 AM CST MON MAR 02 2015

NOTE: "FAIR" INDICATES FEW OR NO CLOUDS BELOW 12,000 FEET WITH NO
SIGNIFICANT WEATHER AND/OR OBSTRUCTIONS TO VISIBILITY.

* THESE STATIONS ARE NOT UNDER NWS QUALITY CONTROL. THEY ALSO MAY NOT
  REPORT WEATHER SUCH AS PRECIPITATION OR FOG.

ILZ001-002-007-009-015-016-024-021500-
NORTHWEST ILLINOIS

CITY           SKY/WX    TMP DP  RH WIND       PRES   REMARKS
MOLINE         MOSUNNY    7   3  84 W6        30.54R WCI  -3
STERLING*      MOSUNNY    0  -4  85 CALM      30.52R
SAVANNA*       SUNNY      6   2  86 CALM      30.53R FOG
$$

ILZ003-004-008-010-011-017-018-021500-
NORTH CENTRAL ILLINOIS

CITY           SKY/WX    TMP DP  RH WIND       PRES   REMARKS
ROCKFORD       MOSUNNY   10   7  87 S3        30.52R
FREEPORT*      MOSUNNY    6   3  86 CALM      30.52R
ROCHELLE*      MOSUNNY    0  -3  87 CALM      30.52R FOG
DE KALB*       PTSUNNY   10   6  83 NW9       30.49R WCI  -2
PERU*          MOSUNNY   10   6  87 W6        30.53R WCI   0
$$

ILZ005-006-012>014-019>023-021500-
NORTHEAST ILLINOIS

CITY           SKY/WX    TMP DP  RH WIND       PRES   REMARKS
CHICAGO-OHARE  MOSUNNY   16   9  74 W7        30.48R WCI   6
CHICAGO-MIDWAY MOSUNNY   19  11  70 NW7       30.50R WCI  10
AURORA         PTSUNNY    5   1  83 NW6       30.50R WCI  -6
LANSING*       MOSUNNY    9   7  89 CALM      30.50R
JOLIET*        PTSUNNY    7   3  86 CALM      30.51S FOG
WAUKEGAN       MOSUNNY   16   9  74 VRB5      30.48R WCI   9
DUPAGE AIRPORT PTSUNNY   15   9  76 NW7       30.48R WCI   5
KANKAKEE*      PTSUNNY    5   2  88 W5        30.52R WCI  -4
WHEELING       MOSUNNY   17   9  70 NW5       30.51R WCI  10
MORRIS*        PTSUNNY    5   3  90 CALM      30.51R
ROMEOVILLE*    PTSUNNY    9   5  86 W5        30.51R WCI   0
NORTHERLY ISL    N/A     21  11  65 W8          N/A  WCI  12
$$

LMZ740>746-021500-
SOUTHERN LAKE MICHIGAN

STATION/POSITION SKY/WX   TEMP    WIND        PRES    VSBY  WAVE
                          AIR SEA DIR/SP/G                  HT/PER
                          (F)     (DEG/KT/KT) (MB)    (MI)  (FT/S)
WAUKEGAN HARBOR            17     280/ 11/ 23   N/A
HARRISON CRIB              20     290/ 12/ 15   N/A
BURNHAM HARBOR             22     280/  8/ 12   N/A
CALUMET HARBOR             20     260/  4/  7 1031.2R
MICHIGAN CITY              17     210/  8/ 10   N/A
$$

ILZ025>027-034>036-040-047-049-050-058-095>099-021500-
WEST-CENTRAL ILLINOIS

CITY           SKY/WX    TMP DP  RH WIND       PRES   REMARKS
QUINCY         FOG       18  16  92 NW5       30.53R VSB 1   WCI  11
GALESBURG*     MOSUNNY   10   8  92 CALM      30.52S
MACOMB*        MOSUNNY   10   9  92 NW5       30.56R FOG     WCI   2
JACKSONVILLE*  FOG       13  10  87 CALM      30.54R VSB<1/4
PITTSFIELD*    MOSUNNY   13  10  89 W6        30.54R FOG     WCI   4
$$

ILZ028>032-037-038-041>044-048-051>054-059>061-021500-
CENTRAL ILLINOIS

CITY           SKY/WX    TMP DP  RH WIND       PRES   REMARKS
PONTIAC        MOSUNNY    9   7  90 CALM      30.53R FOG
BLOOMINGTON    MOSUNNY   13  10  87 W5        30.52R WCI   5
DECATUR        PTSUNNY   22  15  75 NW8       30.53R WCI  12
PEORIA         MOSUNNY   19  13  77 CALM      30.54R
LACON*         MOSUNNY   11   7  86 CALM      30.53R FOG
LINCOLN*       PTSUNNY   13  10  87 CALM      30.56R
SPRINGFIELD    MOSUNNY   14  12  92 CALM      30.54R FOG
TAYLORVILLE    FOG       12  10  92 CALM      30.53R VSB 1/4
$$

ILZ033-039-045-046-055>057-062-063-021500-
EAST-CENTRAL ILLINOIS

CITY           SKY/WX    TMP DP  RH WIND       PRES   REMARKS
CHAMPAIGN      PTSUNNY   11   8  88 NW6       30.51R FOG     WCI   1
DANVILLE*      PTSUNNY   16  10  79 NW7       30.50R WCI   6
RANTOUL*       PTSUNNY   14  10  84 NW10      30.52R WCI   1
MATTOON        MOSUNNY   16  11  80 W5        30.51R HAZE    WCI   9
PARIS*         PTSUNNY    9   7  90 CALM      30.55R
$$

ILZ079-100>102-021500-
SOUTHWEST ILLINOIS

CITY           SKY/WX    TMP DP  RH WIND       PRES   REMARKS
ALTON          PTSUNNY   14  10  85 CALM      30.55R FOG
BELLEVILLE     MOSUNNY   14  14  98 N2        30.55R
CAHOKIA*       MOSUNNY   14  13  95 CALM      30.56R FOG
SPARTA*        FOG       13  10  90 CALM      30.55F VSB<1/4
$$

ILZ064>066-069>071-074>076-080>082-084>086-088>090-092>094-021500-
SOUTH-CENTRAL ILLINOIS

CITY           SKY/WX    TMP DP  RH WIND       PRES   REMARKS
CARBONDALE     PTSUNNY   25  20  81 N6        30.55F HAZE    WCI  18
CAIRO*         SUNNY     30  22  71 NE9       30.55S WCI  22
EFFINGHAM*     MOSUNNY   15  11  86 S3        30.55S FOG
MARION         PTSUNNY   27  21  80 N6        30.56S WCI  20
MT. VERNON     MOSUNNY   12   9  85 CALM      30.55S
CENTRALIA*     FOG       12   9  86 CALM      30.55S VSB<1/4
SALEM*         FOG      N/A N/A N/A CALM      30.55S VSB<1/4
METROPOLIS*    MOSUNNY   29  20  68 NE9       30.53S WCI  21
$$

ILZ067-068-072-073-078-083-087-091-021500-
SOUTHEAST ILLINOIS

CITY           SKY/WX    TMP DP  RH WIND       PRES   REMARKS
LAWRENCEVILLE  MOSUNNY   16  14  92 CALM      30.56R FOG
FLORA*         MOSUNNY   14  12  90 CALM      30.55S FOG
FAIRFIELD*     MOSUNNY   17  15  92 CALM      30.55S FOG
HARRISBURG*    MOSUNNY   26  21  82 NE6       30.57S WCI  19
ROBINSON*      MOSUNNY   10   8  92 CALM      30.57R FOG
CARMI*         MOSUNNY   27  23  87 N6        30.55F WCI  20
$$

ABBREVIATIONS USED IN REMARKS
   TC - TEMPERATURE IN CELSIUS
  WCI - WIND CHILL INDEX
   HX - HEAT INDEX
  VSB - VISIBILITY
$$



USA.gov is the U.S. government's official web portal to all federal, state and local government web resources and services.